Location: Bratislava
(0.0000°N, 17.1167°E)
Time: 17:02:43
(UTC+01:00)

Daily predictions for brighter satellites

Satellite Brightness Start Highest point End
(mag) Time Altitude Azimuth Time Altitude Azimuth Time Altitude Azimuth
Cosmos 2150 Rocket 4.5 18:19:37 10° S 18:24:27 40° ESE 18:29:12 10° NNE
Cosmos 1939 Rocket 3.1 18:20:44 10° S 18:24:53 81° W 18:29:00 10° NNW
Cosmos 1689 Rocket 4.2 18:23:47 10° NNW 18:26:16 28° W 18:28:47 10° SW
Meteor 1-11 4.4 18:21:58 10° S 18:27:46 88° W 18:33:29 10° N
Aureole 3 2.8 18:25:30 10° N 18:28:32 62° E 18:32:02 10° SSE
Cosmos 2026 Rocket 4.4 18:25:27 10° S 18:31:28 68° W 18:37:30 10° N
OAO 3 Rocket 3.9 18:27:44 10° WSW 18:32:32 52° NW 18:37:20 10° NE
Cosmos 1758 Rocket 4.0 18:28:27 10° S 18:32:48 68° W 18:37:10 10° N
Feng Yun 1-1 Rocket 4.1 18:28:19 10° SSE 18:33:41 73° ENE 18:39:03 10° N
Cosmos 1892 4.0 18:32:23 10° SE 18:35:14 21° E 18:38:05 10° NE
CZ-2D R/B 3.2 18:31:47 10° SSE 18:35:40 84° ENE 18:39:30 10° N
GPS 2-04 Rocket1 4.0 18:33:28 10° SSW 18:36:01 20° SE 18:38:34 10° E
IRS-1C Rocket 4.1 18:34:01 10° SSE 18:39:11 58° ENE 18:44:19 10° N
H-2A R/B 2.6 18:35:12 10° SE 18:39:33 32° ENE 18:43:56 10° NNE
Cosmos 2098 Rocket 4.4 18:34:20 10° S 18:40:22 73° W 18:47:28 10° N
SWARM A 4.3 18:40:21 10° SSE 18:43:36 52° E 18:46:49 10° NNE
CZ-4 R/B 1.6 18:41:29 10° SSE 18:45:34 52° ENE 18:49:35 10° N
deb Ariane 3.4 18:43:55 10° W 18:46:27 88° S 18:52:41 13° E
Iridium 4 Rocket 3.2 18:41:55 10° N 18:46:43 64° E 18:51:07 10° S
Cosmos 1655 Rocket 4.2 18:41:06 10° SSE 18:47:08 49° E 18:53:05 10° NNE
Cosmos 923 Rocket 4.3 18:43:48 10° N 18:48:47 44° ENE 18:53:44 10° SSE
Cosmos 2298 Rocket 4.1 18:44:31 10° SSW 18:49:49 87° W 18:55:07 10° N
ARGOS 3.9 18:45:27 10° SE 18:50:00 28° ENE 18:54:31 10° NNE
Cosmos 2297 3.9 18:44:56 10° S 18:50:21 49° ESE 18:55:46 10° NNE
Ariane H10+ 3.4 18:35:39 10° W 18:50:49 53° N 18:54:50 16° ENE
Ariane 42L Rocket 3.3 18:51:00 10° SSW 18:51:36 11° S 18:52:17 10° SSE
Cosmos 1680 Rocket 4.0 18:49:56 10° NNE 18:54:36 35° ENE 18:59:18 10° SE
YAOGAN 1 2.6 18:50:25 10° SSE 18:54:39 56° ENE 18:58:52 10° N
Aureole 3 Rocket 3.7 18:51:41 10° NNE 18:56:00 52° E 19:02:03 10° SSE
Okean-O 2.6 18:52:49 10° SSE 18:57:12 63° ENE 19:01:34 10° N
Meteor 2-8 Rocket 4.4 18:53:29 10° N 18:59:33 68° E 19:05:39 10° SSE
Cosmos 1125 Rocket 3.4 18:55:55 10° S 19:01:05 75° ESE 19:06:16 10° NNE
CZ-2C R/B 3.6 18:56:49 10° S 19:01:42 60° WSW 19:06:50 10° NNW
ARIANE 5 R/B 1.5 18:57:35 10° W 19:03:56 83° S 19:05:04 29° E
SJ-11-01 4.2 19:00:16 10° SSE 19:04:56 63° ENE 19:09:34 10° N
FUSE 3.9 19:00:39 10° WNW 19:05:59 88° SSW 19:10:46 13° ESE
NATO 3D Rocket 3.2 19:02:23 10° WSW 19:07:06 79° NNW 19:09:55 25° ENE
Cosmos-2242 3.4 19:05:41 10° NNE 19:09:45 42° E 19:13:53 10° SSE
CSL-04 Debris 4.3 19:06:43 10° SSE 19:11:57 50° ENE 19:17:07 10° N
Cosmos 1408 2.5 19:11:31 10° S 19:15:05 59° E 19:16:34 31° NNE
Meteor 2-21 4.3 19:09:17 10° S 19:15:18 70° E 19:21:18 10° N
Palapa 6 Rocket 3.7 19:11:20 10° WNW 19:17:11 67° SSW 19:20:44 18° SE
SL-08 RB Rocket 4.0 19:15:22 10° SSE 19:19:42 41° ENE 19:21:47 26° NNE
GEOS 3 Rocket 3.5 19:16:56 23° NE 19:20:10 72° ESE 19:25:14 10° SSW
Chunghua 1 4.5 19:19:20 10° SW 19:23:01 66° SE 19:23:38 54° E
CCE 1 Rocket 3.8 19:17:52 10° NW 19:23:59 62° NNE 19:25:24 40° E
CZ-2C R/B 4.3 19:19:49 10° NNW 19:24:50 34° WNW 19:29:51 10° SW
S3M 4.4 19:23:00 28° NE 19:25:06 36° E 19:30:41 10° SSE
Meteor 2-14 Rocket 4.3 19:21:08 10° S 19:27:13 88° E 19:33:16 10° N
ARIANE DEB (SYLDA) 3.2 19:23:55 10° WSW 19:28:42 38° S 19:30:08 26° SE
Meteor 2-15 Rocket 4.4 19:23:50 10° N 19:29:52 62° E 19:35:55 10° SSE
SL-8 R/B 4.0 19:28:31 10° SSW 19:33:05 46° SE 19:33:32 44° ESE
Cosmos 2112 Rocket 3.8 19:28:06 10° N 19:33:17 85° ENE 19:38:28 10° SSE
Meteor 1-27 4.2 19:30:25 24° NNE 19:33:31 52° E 19:38:54 10° SSE
Cosmos 1825 2.4 19:30:14 10° S 19:33:19 52° SE 19:33:19 52° SE
Cosmos 1076 Rocket 4.3 19:30:15 10° SSE 19:33:19 35° SE 19:33:19 35° SE
DELTA 2 R/B (1) 3.4 19:30:43 10° NW 19:36:16 88° NE 19:39:22 27° SE
Ariane 44P Rocket 3.3 19:33:02 10° W 19:36:17 64° N 19:39:09 37° ENE
Meteor 2-21 Rocket 4.3 19:30:41 10° S 19:36:44 82° E 19:41:07 20° N
CZ-3A R/B 3.0 19:32:11 10° WSW 19:38:24 80° NNW 19:43:03 36° ENE
Helios 1A Rocket 4.2 19:36:16 10° S 19:40:09 42° WSW 19:44:03 10° NNW
Lacrosse 5 rocket 1.7 19:38:00 10° SW 19:42:37 73° WNW 19:43:23 58° N
Intercosmos 25 Rocket 3.9 19:39:35 10° S 19:45:25 73° W 19:46:36 46° NNW
NOSS 3-3 (A) 3.5 19:43:44 10° SSW 19:49:14 67° ESE 19:49:32 65° E
NOSS 3-3 (C) 3.5 19:43:50 10° SSW 19:49:20 65° ESE 19:49:35 64° E
Cosmos 1943 Rocket 2.4 19:44:00 10° SSW 19:49:27 67° WNW 19:51:43 35° N
Delta 168 3.7 19:46:43 10° WNW 19:48:53 38° WSW 19:48:53 38° WSW
Cosmos 2369 Rocket 2.2 19:44:57 10° S 19:50:31 60° ESE 19:50:31 60° ESE
BREEZE-M DEB (TANK) 4.4 19:21:10 10° SW 19:52:59 86° SE 19:55:51 45° NE
CSL-04 Rocket 4.4 19:52:57 10° S 19:58:05 51° WSW 20:03:17 10° NNW
H-10 deb 3.6 19:57:49 10° WSW 19:58:54 23° WSW 19:58:54 23° WSW
Ariane H10 4.4 20:01:56 10° W 20:02:59 20° W 20:02:59 20° W
BLOCK DM-SL R/B 3.6 19:37:06 10° W 20:06:05 89° S 20:06:55 70° E
MOS 1-B Rocket 4.4 20:26:54 76° S 20:26:54 76° S 20:33:58 10° SSW
